EKBI

Billund

Airport
ICAO code
EKBI
Summary
ICAO Region
EUR
ICAO Territory
Location

Billund,

Elevation
247 ft
Coordinates
55° 44' 25" N , 9° 9' 6" E
KCC
Metar
EKBI 191420Z AUTO 14004KT 100V190 9999 NCD 24/12 Q1021

Description

Billund Airport located 1 nm northeast of Billund, Denmark.

Climatology

Temperate Marine climate/Oceanic climate (Köppen climate classification Cfb). Moderately cool summer and comparatively warm winter with a temperature range of only 14°C. Prevailing south-westerly winds from the Atlantic Ocean.

Runways

Designator Length Width Surface Rops
9/27 3100 45 ASP Yes/Yes

SKYbrary Partners:

Safety knowledge contributed by: